Location: Linz
(48.3300°N, 14.3000°E)
Time: 22:04:37
(UTC+02:00)

Vanguard 3 - All Passes

Search period start: 23 June 2018 00:00
Search period end: 03 July 2018 00:00
Orbit: 508 x 3264 km, 33.3° (Epoch: 23 June)

Date Brightness Start Highest point End Pass type
(mag) Time Alt. Az. Time Alt. Az. Time Alt. Az.
23 Jun - 03:08:27 10° S 03:10:49 13° SSE 03:13:37 10° ESE visible
23 Jun - 05:15:55 10° SW 05:21:17 27° S 05:29:34 10° ESE daylight
23 Jun - 07:26:05 10° WSW 07:33:07 27° S 07:43:48 10° SE daylight
23 Jun - 09:39:15 10° WSW 09:45:52 16° SSW 09:54:12 10° S daylight
24 Jun - 04:03:50 10° SSW 04:07:53 20° SSE 04:13:31 10° ESE visible
24 Jun - 06:13:06 10° WSW 06:19:00 27° S 06:28:07 10° SE daylight
24 Jun - 08:24:32 10° WSW 08:31:16 20° SSW 08:40:33 10° SSE daylight
25 Jun - 02:52:51 10° S 02:54:48 12° SSE 02:57:03 10° SE visible
25 Jun - 05:00:32 10° SW 05:05:17 24° S 05:12:21 10° ESE daylight
25 Jun - 07:10:53 10° WSW 07:16:57 23° S 07:25:47 10° SSE daylight
25 Jun - 09:25:25 10° SW 09:29:26 12° SSW 09:34:05 10° S daylight
26 Jun - 03:48:25 10° SSW 03:51:56 18° SSE 03:56:39 10° ESE visible
26 Jun - 05:57:50 10° SW 06:02:59 23° S 06:10:32 10° SE daylight
26 Jun - 08:09:49 10° SW 08:15:01 16° SSW 08:21:43 10° S daylight
27 Jun - 02:37:21 10° S 02:38:51 11° SSE 02:40:32 10° SE visible
27 Jun - 04:45:14 10° SW 04:49:21 21° S 04:55:11 10° SE daylight
27 Jun - 06:55:54 10° SW 07:00:51 18° SSW 07:07:38 10° SSE daylight
28 Jun - 03:33:03 10° SSW 03:36:03 16° SSE 03:39:52 10° SE visible
28 Jun - 05:42:44 10° SW 05:47:01 19° S 05:52:55 10° SE daylight
28 Jun - 07:56:09 10° SW 07:58:52 11° SSW 08:01:57 10° S daylight
29 Jun - 02:21:57 10° S 02:22:57 11° SSE 02:24:03 10° SSE visible
29 Jun - 04:30:03 10° SW 04:33:29 18° S 04:38:02 10° SE daylight
29 Jun - 06:41:23 10° SW 06:44:51 14° SSW 06:49:10 10° SSE daylight
30 Jun - 03:17:46 10° SSW 03:20:13 14° S 03:23:08 10° SE visible
30 Jun - 05:27:55 10° SW 05:31:07 15° S 05:35:11 10° SSE daylight
01 Jul - 02:06:52 10° SSE 02:07:06 10° SSE 02:07:20 10° SSE visible
01 Jul - 04:15:03 10° SSW 04:17:40 14° S 04:20:50 10° SSE visible
02 Jul - 03:02:39 10° SSW 03:04:24 12° S 03:06:23 10° SSE visible
02 Jul - 05:13:56 10° SSW 05:15:16 11° S 05:16:44 10° S daylight
